owner,sensor,date,latitude,longitude,vertical_datum,direction_of_sea_water_velocity,sea_water_speed,upward_sea_water_velocity,qcFlag 
TABS,ioos:station:wmo:42050:1,1999-01-01T00:00:00Z,28.8425,-94.2433,2.0,274.2410352,10.00739726,-99999.0,'11111222,11111222,99999999' 
TABS,ioos:station:wmo:42050:1,1999-01-01T00:30:00Z,28.8425,-94.2433,2.0,264.5393793,10.92959286,-99999.0,'11111222,11111222,99999999' 
TABS,ioos:station:wmo:42050:1,1999-01-01T01:00:00Z,28.8425,-94.2433,2.0,268.4201361,10.88413524,-99999.0,'11111222,11111222,99999999' 
TABS,ioos:station:wmo:42050:1,1999-01-01T01:30:00Z,28.8425,-94.2433,2.0,274.4958664,11.35493285,-99999.0,'11111222,11111222,99999999' 
TABS,ioos:station:wmo:42050:1,1999-01-01T02:00:00Z,28.8425,-94.2433,2.0,276.2219189,9.596520203,-99999.0,'11133222,11111222,99999999' 
TABS,ioos:station:wmo:42050:1,1999-01-01T02:30:00Z,28.8425,-94.2433,2.0,270.0004209,10.28,-99999.0,'11111222,11111222,99999999' 
TABS,ioos:station:wmo:42050:1,1999-01-01T03:00:00Z,28.8425,-94.2433,2.0,281.6579641,10.34335536,-99999.0,'11111222,11111222,99999999' 
TABS,ioos:station:wmo:42050:1,1999-01-01T03:30:00Z,28.8425,-94.2433,2.0,286.4807706,11.03328147,-99999.0,'11111222,11111222,99999999' 
TABS,ioos:station:wmo:42050:1,1999-01-01T04:00:00Z,28.8425,-94.2433,2.0,293.2321144,9.075902159,-99999.0,'11133222,11111222,99999999' 
TABS,ioos:station:wmo:42050:1,1999-01-01T04:30:00Z,28.8425,-94.2433,2.0,289.3696428,8.532959627,-99999.0,'11133222,11111222,99999999' 
TABS,ioos:station:wmo:42050:1,1999-01-01T05:00:00Z,28.8425,-94.2433,2.0,281.4924213,10.49030505,-99999.0,'11111222,11111222,99999999' 
TABS,ioos:station:wmo:42050:1,1999-01-01T05:30:00Z,28.8425,-94.2433,2.0,283.8135839,9.968289723,-99999.0,'11133222,11111222,99999999' 
TABS,ioos:station:wmo:42050:1,1999-01-01T06:00:00Z,28.8425,-94.2433,2.0,267.1180021,11.93509112,-99999.0,'11111222,11111222,99999999' 
TABS,ioos:station:wmo:42050:1,1999-01-01T06:30:00Z,28.8425,-94.2433,2.0,262.2370323,9.920912256,-99999.0,'11133222,11111222,99999999' 
TABS,ioos:station:wmo:42050:1,1999-01-01T07:00:00Z,28.8425,-94.2433,2.0,249.1995573,7.969403993,-99999.0,'11133222,11111222,99999999' 
TABS,ioos:station:wmo:42050:1,1999-01-01T07:30:00Z,28.8425,-94.2433,2.0,238.4258775,12.24226286,-99999.0,'11111222,11111222,99999999' 
TABS,ioos:station:wmo:42050:1,1999-01-01T08:00:00Z,28.8425,-94.2433,2.0,229.2037911,14.37172571,-99999.0,'11111222,11111222,99999999' 
TABS,ioos:station:wmo:42050:1,1999-01-01T08:30:00Z,28.8425,-94.2433,2.0,227.2174264,16.44547962,-99999.0,'11111222,11111222,99999999' 
TABS,ioos:station:wmo:42050:1,1999-01-01T09:00:00Z,28.8425,-94.2433,2.0,219.3190156,20.21647101,-99999.0,'11111222,11111222,99999999' 
TABS,ioos:station:wmo:42050:1,1999-01-01T09:30:00Z,28.8425,-94.2433,2.0,215.9355156,22.08293459,-99999.0,'11111222,11111222,99999999' 
TABS,ioos:station:wmo:42050:1,1999-01-01T10:00:00Z,28.8425,-94.2433,2.0,224.7899135,28.97035899,-99999.0,'11111222,11111222,99999999' 
TABS,ioos:station:wmo:42050:1,1999-01-01T10:30:00Z,28.8425,-94.2433,2.0,221.2025076,28.7220908,-99999.0,'11111222,11111222,99999999' 
TABS,ioos:station:wmo:42050:1,1999-01-01T11:00:00Z,28.8425,-94.2433,2.0,223.552088,33.30828876,-99999.0,'11111222,11111222,99999999' 
TABS,ioos:station:wmo:42050:1,1999-01-01T11:30:00Z,28.8425,-94.2433,2.0,222.9986904,33.21184427,-99999.0,'11111222,11111222,99999999' 
TABS,ioos:station:wmo:42050:1,1999-01-01T12:00:00Z,28.8425,-94.2433,2.0,227.6236698,36.91432378,-99999.0,'11111222,11111222,99999999' 
TABS,ioos:station:wmo:42050:1,1999-01-01T12:30:00Z,28.8425,-94.2433,2.0,231.6860936,34.37291085,-99999.0,'11111222,11111222,99999999' 
TABS,ioos:station:wmo:42050:1,1999-01-01T13:00:00Z,28.8425,-94.2433,2.0,239.6018956,33.85375755,-99999.0,'11111222,11111222,99999999' 
TABS,ioos:station:wmo:42050:1,1999-01-01T13:30:00Z,28.8425,-94.2433,2.0,246.5389327,29.56395271,-99999.0,'11111222,11111222,99999999' 
TABS,ioos:station:wmo:42050:1,1999-01-01T14:00:00Z,28.8425,-94.2433,2.0,258.2670574,24.19550578,-99999.0,'11111222,11111222,99999999' 
TABS,ioos:station:wmo:42050:1,1999-01-01T14:30:00Z,28.8425,-94.2433,2.0,265.9717043,21.21239496,-99999.0,'11111222,11111222,99999999' 
TABS,ioos:station:wmo:42050:1,1999-01-01T15:00:00Z,28.8425,-94.2433,2.0,275.3627484,19.15382468,-99999.0,'11111222,11111222,99999999' 
TABS,ioos:station:wmo:42050:1,1999-01-01T15:30:00Z,28.8425,-94.2433,2.0,284.1506299,18.28479696,-99999.0,'11111222,11111222,99999999' 
TABS,ioos:station:wmo:42050:1,1999-01-01T16:00:00Z,28.8425,-94.2433,2.0,288.2846811,18.04085641,-99999.0,'11111222,11111222,99999999' 
TABS,ioos:station:wmo:42050:1,1999-01-01T16:30:00Z,28.8425,-94.2433,2.0,301.2080994,18.12241982,-99999.0,'11111222,11111222,99999999' 
TABS,ioos:station:wmo:42050:1,1999-01-01T17:00:00Z,28.8425,-94.2433,2.0,310.6106702,20.60188584,-99999.0,'11111222,11111222,99999999' 
TABS,ioos:station:wmo:42050:1,1999-01-01T17:30:00Z,28.8425,-94.2433,2.0,315.0003157,20.64751801,-99999.0,'11111222,11111222,99999999' 
TABS,ioos:station:wmo:42050:1,1999-01-01T18:00:00Z,28.8425,-94.2433,2.0,325.224247,21.95065603,-99999.0,'11111222,11111222,99999999' 
TABS,ioos:station:wmo:42050:1,1999-01-01T18:30:00Z,28.8425,-94.2433,2.0,328.2397538,22.07571743,-99999.0,'11111222,11111222,99999999' 
TABS,ioos:station:wmo:42050:1,1999-01-01T19:00:00Z,28.8425,-94.2433,2.0,330.9140949,21.14683901,-99999.0,'11111222,11111222,99999999' 
TABS,ioos:station:wmo:42050:1,1999-01-01T19:30:00Z,28.8425,-94.2433,2.0,334.7414104,20.59953883,-99999.0,'11111222,11111222,99999999' 
TABS,ioos:station:wmo:42050:1,1999-01-01T20:00:00Z,28.8425,-94.2433,2.0,341.882304,17.71851292,-99999.0,'11111222,11111222,99999999' 
TABS,ioos:station:wmo:42050:1,1999-01-01T20:30:00Z,28.8425,-94.2433,2.0,346.5456115,14.09689682,-99999.0,'11111222,11111222,99999999' 
TABS,ioos:station:wmo:42050:1,1999-01-01T21:00:00Z,28.8425,-94.2433,2.0,354.7480425,8.083940871,-99999.0,'11133222,11111222,99999999' 
TABS,ioos:station:wmo:42050:1,1999-01-01T21:30:00Z,28.8425,-94.2433,2.0,12.95153855,3.97102002,-99999.0,'11133222,11111222,99999999' 
TABS,ioos:station:wmo:42050:1,1999-01-01T22:00:00Z,28.8425,-94.2433,2.0,350.4860122,1.814965564,-99999.0,'11133222,11111222,99999999' 
TABS,ioos:station:wmo:42050:1,1999-01-01T22:30:00Z,28.8425,-94.2433,2.0,240.3434145,2.405036382,-99999.0,'11133222,11111222,99999999' 
TABS,ioos:station:wmo:42050:1,1999-01-01T23:00:00Z,28.8425,-94.2433,2.0,160.5024615,2.217137795,-99999.0,'11133222,11111222,99999999' 
TABS,ioos:station:wmo:42050:1,1999-01-01T23:30:00Z,28.8425,-94.2433,2.0,203.9423833,2.932319901,-99999.0,'11133222,11111222,99999999' 
TABS,ioos:station:wmo:42050:1,1999-01-02T00:00:00Z,28.8425,-94.2433,2.0,222.677078,5.059970356,-99999.0,'11133222,11111222,99999999' 
TABS,ioos:station:wmo:42050:1,1999-01-02T00:30:00Z,28.8425,-94.2433,2.0,203.4799735,3.73965239,-99999.0,'11133222,11111222,99999999' 
TABS,ioos:station:wmo:42050:1,1999-01-02T01:00:00Z,28.8425,-94.2433,2.0,221.1629495,4.755344362,-99999.0,'11133222,11111222,99999999' 
TABS,ioos:station:wmo:42050:1,1999-01-02T01:30:00Z,28.8425,-94.2433,2.0,234.5313076,3.84314975,-99999.0,'11133222,11111222,99999999' 
TABS,ioos:station:wmo:42050:1,1999-01-02T02:00:00Z,28.8425,-94.2433,2.0,250.6188406,2.681976883,-99999.0,'11133222,11111222,99999999' 
TABS,ioos:station:wmo:42050:1,1999-01-02T02:30:00Z,28.8425,-94.2433,2.0,281.251076,3.792888082,-99999.0,'11133222,11111222,99999999' 
TABS,ioos:station:wmo:42050:1,1999-01-02T03:00:00Z,28.8425,-94.2433,2.0,276.7627948,2.547724475,-99999.0,'11133222,11111222,99999999' 
TABS,ioos:station:wmo:42050:1,1999-01-02T03:30:00Z,28.8425,-94.2433,2.0,3.203713921,2.684194479,-99999.0,'11133222,11111222,99999999' 
TABS,ioos:station:wmo:42050:1,1999-01-02T04:00:00Z,28.8425,-94.2433,2.0,328.5105602,5.417868585,-99999.0,'11133222,11111222,99999999' 
TABS,ioos:station:wmo:42050:1,1999-01-02T04:30:00Z,28.8425,-94.2433,2.0,358.6903249,6.561714715,-99999.0,'11133222,11111222,99999999' 
TABS,ioos:station:wmo:42050:1,1999-01-02T05:00:00Z,28.8425,-94.2433,2.0,0.000210459,4.47,-99999.0,'11133222,11111222,99999999' 
TABS,ioos:station:wmo:42050:1,1999-01-02T05:30:00Z,28.8425,-94.2433,2.0,334.7322597,5.927098784,-99999.0,'11133222,11111222,99999999' 
TABS,ioos:station:wmo:42050:1,1999-01-02T06:00:00Z,28.8425,-94.2433,2.0,287.4733014,5.462023435,-99999.0,'11133222,11111222,99999999' 
TABS,ioos:station:wmo:42050:1,1999-01-02T06:30:00Z,28.8425,-94.2433,2.0,4.998771187,3.443094538,-99999.0,'11133222,11111222,99999999' 
TABS,ioos:station:wmo:42050:1,1999-01-02T07:00:00Z,28.8425,-94.2433,2.0,357.4925146,6.856566196,-99999.0,'11133222,11111222,99999999' 
TABS,ioos:station:wmo:42050:1,1999-01-02T07:30:00Z,28.8425,-94.2433,2.0,309.2120364,5.188333066,-99999.0,'11133222,11111222,99999999' 
TABS,ioos:station:wmo:42050:1,1999-01-02T08:00:00Z,28.8425,-94.2433,2.0,76.94072151,1.991506967,-99999.0,'11133222,11111222,99999999' 
TABS,ioos:station:wmo:42050:1,1999-01-02T08:30:00Z,28.8425,-94.2433,2.0,261.4124308,3.013784996,-99999.0,'11133222,11111222,99999999' 
TABS,ioos:station:wmo:42050:1,1999-01-02T09:00:00Z,28.8425,-94.2433,2.0,189.6478123,7.100429564,-99999.0,'11133222,11111222,99999999' 
TABS,ioos:station:wmo:42050:1,1999-01-02T09:30:00Z,28.8425,-94.2433,2.0,172.1319432,22.86524437,-99999.0,'11111222,11111222,99999999' 
TABS,ioos:station:wmo:42050:1,1999-01-02T10:00:00Z,28.8425,-94.2433,2.0,167.5424026,23.5033487,-99999.0,'11111222,11111222,99999999' 
TABS,ioos:station:wmo:42050:1,1999-01-02T10:30:00Z,28.8425,-94.2433,2.0,176.8376162,27.01112734,-99999.0,'11111222,11111222,99999999' 
TABS,ioos:station:wmo:42050:1,1999-01-02T11:00:00Z,28.8425,-94.2433,2.0,184.7571809,30.5050963,-99999.0,'11111222,11111222,99999999' 
TABS,ioos:station:wmo:42050:1,1999-01-02T11:30:00Z,28.8425,-94.2433,2.0,188.2924212,28.91229842,-99999.0,'11111222,11111222,99999999' 
TABS,ioos:station:wmo:42050:1,1999-01-02T12:00:00Z,28.8425,-94.2433,2.0,194.5417365,40.94160842,-99999.0,'11111222,11111222,99999999' 
TABS,ioos:station:wmo:42050:1,1999-01-02T12:30:00Z,28.8425,-94.2433,2.0,203.6720833,39.70054408,-99999.0,'11111222,11111222,99999999' 
TABS,ioos:station:wmo:42050:1,1999-01-02T13:00:00Z,28.8425,-94.2433,2.0,207.9661556,32.73240902,-99999.0,'11111222,11111222,99999999' 
TABS,ioos:station:wmo:42050:1,1999-01-02T13:30:00Z,28.8425,-94.2433,2.0,219.9593949,27.60613157,-99999.0,'11111222,11111222,99999999' 
TABS,ioos:station:wmo:42050:1,1999-01-02T14:00:00Z,28.8425,-94.2433,2.0,215.6907722,26.05351416,-99999.0,'11111222,11111222,99999999' 
TABS,ioos:station:wmo:42050:1,1999-01-02T14:30:00Z,28.8425,-94.2433,2.0,222.8386099,19.50173326,-99999.0,'11111222,11111222,99999999' 
TABS,ioos:station:wmo:42050:1,1999-01-02T15:00:00Z,28.8425,-94.2433,2.0,206.1853428,10.12961006,-99999.0,'11111222,11111222,99999999' 
TABS,ioos:station:wmo:42050:1,1999-01-02T15:30:00Z,28.8425,-94.2433,2.0,219.4364885,6.564586811,-99999.0,'11133222,11111222,99999999' 
TABS,ioos:station:wmo:42050:1,1999-01-02T16:00:00Z,28.8425,-94.2433,2.0,223.5457922,12.54104063,-99999.0,'11111222,11111222,99999999' 
TABS,ioos:station:wmo:42050:1,1999-01-02T16:30:00Z,28.8425,-94.2433,2.0,246.2577149,5.538754373,-99999.0,'11133222,11111222,99999999' 
TABS,ioos:station:wmo:42050:1,1999-01-02T17:00:00Z,28.8425,-94.2433,2.0,225.8127184,7.474871236,-99999.0,'11133222,11111222,99999999' 
TABS,ioos:station:wmo:42050:1,1999-01-02T17:30:00Z,28.8425,-94.2433,2.0,257.3133233,4.735609781,-99999.0,'11133222,11111222,99999999' 
TABS,ioos:station:wmo:42050:1,1999-01-02T18:00:00Z,28.8425,-94.2433,2.0,307.6448245,4.142378544,-99999.0,'11133222,11111222,99999999' 
TABS,ioos:station:wmo:42050:1,1999-01-02T18:30:00Z,28.8425,-94.2433,2.0,345.9639998,6.143427382,-99999.0,'11133222,11111222,99999999' 
TABS,ioos:station:wmo:42050:1,1999-01-02T19:00:00Z,28.8425,-94.2433,2.0,6.787020396,12.60835041,-99999.0,'11111222,11111222,99999999' 
TABS,ioos:station:wmo:42050:1,1999-01-02T19:30:00Z,28.8425,-94.2433,2.0,13.26748281,11.02423694,-99999.0,'11111222,11111222,99999999' 
TABS,ioos:station:wmo:42050:1,1999-01-02T20:00:00Z,28.8425,-94.2433,2.0,8.038832224,15.94669245,-99999.0,'11111222,11111222,99999999' 
TABS,ioos:station:wmo:42050:1,1999-01-02T20:30:00Z,28.8425,-94.2433,2.0,15.69924024,19.80895,-99999.0,'11111222,11111222,99999999' 
TABS,ioos:station:wmo:42050:1,1999-01-02T21:00:00Z,28.8425,-94.2433,2.0,28.78497816,15.471784,-99999.0,'11111222,11111222,99999999' 
TABS,ioos:station:wmo:42050:1,1999-01-02T21:30:00Z,28.8425,-94.2433,2.0,52.85868877,13.0841469,-99999.0,'11111222,11111222,99999999' 
TABS,ioos:station:wmo:42050:1,1999-01-02T22:00:00Z,28.8425,-94.2433,2.0,69.60628238,12.39704804,-99999.0,'11111222,11111222,99999999' 
TABS,ioos:station:wmo:42050:1,1999-01-02T22:30:00Z,28.8425,-94.2433,2.0,97.46269113,12.62695529,-99999.0,'11111222,11111222,99999999' 
TABS,ioos:station:wmo:42050:1,1999-01-02T23:00:00Z,28.8425,-94.2433,2.0,109.3341439,15.31363445,-99999.0,'11111222,11111222,99999999' 
TABS,ioos:station:wmo:42050:1,1999-01-02T23:30:00Z,28.8425,-94.2433,2.0,115.8615308,16.39161371,-99999.0,'11111222,11111222,99999999' 
TABS,ioos:station:wmo:42050:1,1999-01-03T00:00:00Z,28.8425,-94.2433,2.0,131.9026306,13.61047391,-99999.0,'11111222,11111222,99999999' 
TABS,ioos:station:wmo:42050:1,1999-01-03T00:30:00Z,28.8425,-94.2433,2.0,133.9121335,11.17430087,-99999.0,'11111222,11111222,99999999' 
TABS,ioos:station:wmo:42050:1,1999-01-03T01:00:00Z,28.8425,-94.2433,2.0,136.0876561,11.17430087,-99999.0,'11111222,11111222,99999999' 
TABS,ioos:station:wmo:42050:1,1999-01-03T01:30:00Z,28.8425,-94.2433,2.0,132.3419049,11.28342147,-99999.0,'11111222,11111222,99999999' 
TABS,ioos:station:wmo:42050:1,1999-01-03T02:00:00Z,28.8425,-94.2433,2.0,108.8273355,13.85110104,-99999.0,'11111222,11111222,99999999' 
TABS,ioos:station:wmo:42050:1,1999-01-03T02:30:00Z,28.8425,-94.2433,2.0,154.6623764,9.393641466,-99999.0,'11133222,11111222,99999999' 
TABS,ioos:station:wmo:42050:1,1999-01-03T03:00:00Z,28.8425,-94.2433,2.0,125.2616663,14.96589456,-99999.0,'11111222,11111222,99999999' 
TABS,ioos:station:wmo:42050:1,1999-01-03T03:30:00Z,28.8425,-94.2433,2.0,123.7168818,11.81788898,-99999.0,'11111222,11111222,99999999' 
TABS,ioos:station:wmo:42050:1,1999-01-03T04:00:00Z,28.8425,-94.2433,2.0,133.0127936,9.176693304,-99999.0,'11133222,11111222,99999999' 
TABS,ioos:station:wmo:42050:1,1999-01-03T04:30:00Z,28.8425,-94.2433,2.0,123.4637634,10.53661236,-99999.0,'11111222,11111222,99999999' 
TABS,ioos:station:wmo:42050:1,1999-01-03T05:00:00Z,28.8425,-94.2433,2.0,119.0234423,10.73853808,-99999.0,'11111222,11111222,99999999' 
TABS,ioos:station:wmo:42050:1,1999-01-03T05:30:00Z,28.8425,-94.2433,2.0,120.6119854,12.29325018,-99999.0,'11111222,11111222,99999999' 
TABS,ioos:station:wmo:42050:1,1999-01-03T06:00:00Z,28.8425,-94.2433,2.0,97.22260717,9.465104331,-99999.0,'11133222,11111222,99999999' 
TABS,ioos:station:wmo:42050:1,1999-01-03T06:30:00Z,28.8425,-94.2433,2.0,108.7277259,9.281406143,-99999.0,'11133222,11111222,99999999' 
TABS,ioos:station:wmo:42050:1,1999-01-03T07:00:00Z,28.8425,-94.2433,2.0,94.5059989,9.419113546,-99999.0,'11133222,11111222,99999999' 
TABS,ioos:station:wmo:42050:1,1999-01-03T07:30:00Z,28.8425,-94.2433,2.0,124.9790325,7.273960407,-99999.0,'11133222,11111222,99999999' 
TABS,ioos:station:wmo:42050:1,1999-01-03T08:00:00Z,28.8425,-94.2433,2.0,121.6804396,8.225715774,-99999.0,'11133222,11111222,99999999' 
TABS,ioos:station:wmo:42050:1,1999-01-03T08:30:00Z,28.8425,-94.2433,2.0,141.1321029,6.884184774,-99999.0,'11133222,11111222,99999999' 
TABS,ioos:station:wmo:42050:1,1999-01-03T09:00:00Z,28.8425,-94.2433,2.0,158.8143105,12.78400563,-99999.0,'11111222,11111222,99999999' 
TABS,ioos:station:wmo:42050:1,1999-01-03T09:30:00Z,28.8425,-94.2433,2.0,205.9240133,11.59697374,-99999.0,'11111222,11111222,99999999' 
TABS,ioos:station:wmo:42050:1,1999-01-03T10:00:00Z,28.8425,-94.2433,2.0,168.0975136,10.8124604,-99999.0,'11111222,11111222,99999999' 
TABS,ioos:station:wmo:42050:1,1999-01-03T10:30:00Z,28.8425,-94.2433,2.0,176.617241,12.54184994,-99999.0,'11111222,11111222,99999999' 
TABS,ioos:station:wmo:42050:1,1999-01-03T11:00:00Z,28.8425,-94.2433,2.0,172.7328521,16.52271769,-99999.0,'11111222,11111222,99999999' 
TABS,ioos:station:wmo:42050:1,1999-01-03T11:30:00Z,28.8425,-94.2433,2.0,189.3207395,19.32515977,-99999.0,'11111222,11111222,99999999' 
TABS,ioos:station:wmo:42050:1,1999-01-03T12:00:00Z,28.8425,-94.2433,2.0,196.2883485,20.18000248,-99999.0,'11111222,11111222,99999999' 
TABS,ioos:station:wmo:42050:1,1999-01-03T12:30:00Z,28.8425,-94.2433,2.0,179.9997895,15.79,-99999.0,'11111222,11111222,99999999' 
TABS,ioos:station:wmo:42050:1,1999-01-03T13:00:00Z,28.8425,-94.2433,2.0,179.5191327,17.88062918,-99999.0,'11111222,11111222,99999999' 
TABS,ioos:station:wmo:42050:1,1999-01-03T13:30:00Z,28.8425,-94.2433,2.0,186.6299255,16.80237186,-99999.0,'11111222,11111222,99999999' 
TABS,ioos:station:wmo:42050:1,1999-01-03T14:00:00Z,28.8425,-94.2433,2.0,203.8186685,16.6151768,-99999.0,'11111222,11111222,99999999' 
TABS,ioos:station:wmo:42050:1,1999-01-03T14:30:00Z,28.8425,-94.2433,2.0,216.5502538,16.50625639,-99999.0,'11111222,11111222,99999999' 
TABS,ioos:station:wmo:42050:1,1999-01-03T15:00:00Z,28.8425,-94.2433,2.0,220.8566766,14.58329524,-99999.0,'11111222,11111222,99999999' 
TABS,ioos:station:wmo:42050:1,1999-01-03T15:30:00Z,28.8425,-94.2433,2.0,238.4809545,13.1031065,-99999.0,'11111222,11111222,99999999' 
TABS,ioos:station:wmo:42050:1,1999-01-03T16:00:00Z,28.8425,-94.2433,2.0,241.8096175,9.462372853,-99999.0,'11133222,11111222,99999999' 
TABS,ioos:station:wmo:42050:1,1999-01-03T16:30:00Z,28.8425,-94.2433,2.0,262.7812858,10.66452062,-99999.0,'11111222,11111222,99999999' 
TABS,ioos:station:wmo:42050:1,1999-01-03T17:00:00Z,28.8425,-94.2433,2.0,278.2762944,7.22524048,-99999.0,'11133222,11111222,99999999' 
TABS,ioos:station:wmo:42050:1,1999-01-03T17:30:00Z,28.8425,-94.2433,2.0,307.8279936,8.495186873,-99999.0,'11133222,11111222,99999999' 
TABS,ioos:station:wmo:42050:1,1999-01-03T18:00:00Z,28.8425,-94.2433,2.0,330.0485561,4.466519898,-99999.0,'11133222,11111222,99999999' 
TABS,ioos:station:wmo:42050:1,1999-01-03T18:30:00Z,28.8425,-94.2433,2.0,312.4811029,9.491475122,-99999.0,'11133222,11111222,99999999' 
TABS,ioos:station:wmo:42050:1,1999-01-03T19:00:00Z,28.8425,-94.2433,2.0,313.7727397,9.901767519,-99999.0,'11133222,11111222,99999999' 
TABS,ioos:station:wmo:42050:1,1999-01-03T19:30:00Z,28.8425,-94.2433,2.0,315.695055,8.747553944,-99999.0,'11133222,11111222,99999999' 
TABS,ioos:station:wmo:42050:1,1999-01-03T20:00:00Z,28.8425,-94.2433,2.0,315.0003157,8.216580797,-99999.0,'11133222,11111222,99999999' 
TABS,ioos:station:wmo:42050:1,1999-01-03T20:30:00Z,28.8425,-94.2433,2.0,315.0003157,7.580184694,-99999.0,'11133222,11111222,99999999' 
TABS,ioos:station:wmo:42050:1,1999-01-03T21:00:00Z,28.8425,-94.2433,2.0,327.6506117,7.232496111,-99999.0,'11133222,11111222,99999999' 
TABS,ioos:station:wmo:42050:1,1999-01-03T21:30:00Z,28.8425,-94.2433,2.0,333.3802879,4.664439945,-99999.0,'11133222,11111222,99999999' 
TABS,ioos:station:wmo:42050:1,1999-01-03T22:00:00Z,28.8425,-94.2433,2.0,304.0798168,6.121258041,-99999.0,'11133222,11111222,99999999' 
TABS,ioos:station:wmo:42050:1,1999-01-03T22:30:00Z,28.8425,-94.2433,2.0,352.8358188,3.608171282,-99999.0,'11133222,11111222,99999999' 
TABS,ioos:station:wmo:42050:1,1999-01-03T23:00:00Z,28.8425,-94.2433,2.0,296.7576765,1.332704018,-99999.0,'11133222,11111222,99999999' 
TABS,ioos:station:wmo:42050:1,1999-01-03T23:30:00Z,28.8425,-94.2433,2.0,270.0004209,0.74,-99999.0,'11133222,11111222,99999999' 
TABS,ioos:station:wmo:42050:1,1999-01-04T00:00:00Z,28.8425,-94.2433,2.0,126.8185631,4.472001789,-99999.0,'11133222,11111222,99999999' 
TABS,ioos:station:wmo:42050:1,1999-01-04T00:30:00Z,28.8425,-94.2433,2.0,159.7327689,6.033547878,-99999.0,'11133222,11111222,99999999' 
TABS,ioos:station:wmo:42050:1,1999-01-04T01:00:00Z,28.8425,-94.2433,2.0,174.1185508,8.685718163,-99999.0,'11133222,11111222,99999999' 
TABS,ioos:station:wmo:42050:1,1999-01-04T01:30:00Z,28.8425,-94.2433,2.0,200.6669785,8.443364258,-99999.0,'11133222,11111222,99999999' 
TABS,ioos:station:wmo:42050:1,1999-01-04T02:00:00Z,28.8425,-94.2433,2.0,205.3372026,9.393641466,-99999.0,'11133222,11111222,99999999' 
TABS,ioos:station:wmo:42050:1,1999-01-04T02:30:00Z,28.8425,-94.2433,2.0,231.5428092,8.37721314,-99999.0,'11133222,11111222,99999999' 
TABS,ioos:station:wmo:42050:1,1999-01-04T03:00:00Z,28.8425,-94.2433,2.0,204.0911982,7.667913667,-99999.0,'11133222,11111222,99999999' 
TABS,ioos:station:wmo:42050:1,1999-01-04T03:30:00Z,28.8425,-94.2433,2.0,200.0505835,6.504229393,-99999.0,'11133222,11111222,99999999' 
TABS,ioos:station:wmo:42050:1,1999-01-04T04:00:00Z,28.8425,-94.2433,2.0,217.0925401,6.168046692,-99999.0,'11133222,11111222,99999999' 
TABS,ioos:station:wmo:42050:1,1999-01-04T04:30:00Z,28.8425,-94.2433,2.0,244.3239352,8.931931482,-99999.0,'11133222,11111222,99999999' 
TABS,ioos:station:wmo:42050:1,1999-01-04T05:00:00Z,28.8425,-94.2433,2.0,216.869601,7.45,-99999.0,'11133222,11111222,99999999' 
TABS,ioos:station:wmo:42050:1,1999-01-04T05:30:00Z,28.8425,-94.2433,2.0,252.8885719,10.12831674,-99999.0,'11111222,11111222,99999999' 
TABS,ioos:station:wmo:42050:1,1999-01-04T06:00:00Z,28.8425,-94.2433,2.0,255.0628823,6.944652619,-99999.0,'11133222,11111222,99999999' 
TABS,ioos:station:wmo:42050:1,1999-01-04T06:30:00Z,28.8425,-94.2433,2.0,258.709403,11.3904258,-99999.0,'11111222,11111222,99999999' 
TABS,ioos:station:wmo:42050:1,1999-01-04T07:00:00Z,28.8425,-94.2433,2.0,245.997486,4.400511334,-99999.0,'11133222,11111222,99999999' 
TABS,ioos:station:wmo:42050:1,1999-01-04T07:30:00Z,28.8425,-94.2433,2.0,260.5502742,7.248351537,-99999.0,'11133222,11111222,99999999' 
TABS,ioos:station:wmo:42050:1,1999-01-04T08:00:00Z,28.8425,-94.2433,2.0,266.0544021,10.75548697,-99999.0,'11111222,11111222,99999999' 
TABS,ioos:station:wmo:42050:1,1999-01-04T08:30:00Z,28.8425,-94.2433,2.0,260.5286201,10.87828111,-99999.0,'11111222,11111222,99999999' 
TABS,ioos:station:wmo:42050:1,1999-01-04T09:00:00Z,28.8425,-94.2433,2.0,260.5224375,12.69324624,-99999.0,'11111222,11111222,99999999' 
TABS,ioos:station:wmo:42050:1,1999-01-04T09:30:00Z,28.8425,-94.2433,2.0,259.1257972,11.07892143,-99999.0,'11111222,11111222,99999999' 
TABS,ioos:station:wmo:42050:1,1999-01-04T10:00:00Z,28.8425,-94.2433,2.0,235.8824438,11.1608781,-99999.0,'11111222,11111222,99999999' 
TABS,ioos:station:wmo:42050:1,1999-01-04T10:30:00Z,28.8425,-94.2433,2.0,236.912046,15.8264715,-99999.0,'11111222,11111222,99999999' 
TABS,ioos:station:wmo:42050:1,1999-01-04T11:00:00Z,28.8425,-94.2433,2.0,250.9239081,16.40059755,-99999.0,'11111222,11111222,99999999' 
TABS,ioos:station:wmo:42050:1,1999-01-04T11:30:00Z,28.8425,-94.2433,2.0,224.2695329,16.64664531,-99999.0,'11111222,11111222,99999999' 
TABS,ioos:station:wmo:42050:1,1999-01-04T12:00:00Z,28.8425,-94.2433,2.0,228.4179802,21.10933917,-99999.0,'11111222,11111222,99999999' 
TABS,ioos:station:wmo:42050:1,1999-01-04T12:30:00Z,28.8425,-94.2433,2.0,229.6314164,23.46773104,-99999.0,'11111222,11111222,99999999' 
TABS,ioos:station:wmo:42050:1,1999-01-04T13:00:00Z,28.8425,-94.2433,2.0,220.4833673,22.71917472,-99999.0,'11111222,11111222,99999999' 
TABS,ioos:station:wmo:42050:1,1999-01-04T13:30:00Z,28.8425,-94.2433,2.0,225.6683564,26.65974118,-99999.0,'11111222,11111222,99999999' 
TABS,ioos:station:wmo:42050:1,1999-01-04T14:00:00Z,28.8425,-94.2433,2.0,226.2444445,29.29527607,-99999.0,'11111222,11111222,99999999' 
TABS,ioos:station:wmo:42050:1,1999-01-04T14:30:00Z,28.8425,-94.2433,2.0,239.8702898,27.91092438,-99999.0,'11111222,11111222,99999999' 
TABS,ioos:station:wmo:42050:1,1999-01-04T15:00:00Z,28.8425,-94.2433,2.0,242.9526754,23.92677371,-99999.0,'11111222,11111222,99999999' 
TABS,ioos:station:wmo:42050:1,1999-01-04T15:30:00Z,28.8425,-94.2433,2.0,255.8795154,23.20098274,-99999.0,'11111222,11111222,99999999' 
TABS,ioos:station:wmo:42050:1,1999-01-04T16:00:00Z,28.8425,-94.2433,2.0,257.7931008,22.56003989,-99999.0,'11111222,11111222,99999999' 